| time (UTC) | temp F | wind direction | speed knots | gust knots | rain 1hr in | rain 24hr in | rain mn in | humidity % | barometer mb |
| 20260831190332 | 75 | 172 | 0.0 | 0.0 | 0.00 | 0.01 | 0.00 | 69 | 1020.5 |
| 20260831185327 | 75 | 172 | 0.0 | 0.0 | 0.00 | 0.01 | 0.00 | 66 | 1020.6 |
| 20260831184317 | 75 | 171 | 0.0 | 0.0 | 0.00 | 0.01 | 0.00 | 68 | 1020.6 |
| 20260831183327 | 76 | 171 | 0.0 | 1.7 | 0.00 | 0.01 | 0.00 | 67 | 1020.4 |
| 20260831182337 | 76 | 174 | 0.0 | 0.0 | 0.00 | 0.01 | 0.00 | 68 | 1020.5 |
| 20260831181345 | 75 | 172 | 0.0 | 0.0 | 0.00 | 0.01 | 0.00 | 71 | 1020.6 |
| 20260831180313 | 75 | 172 | 0.0 | 0.0 | 0.00 | 0.01 | 0.00 | 73 | 1020.7 |
| 20260831175322 | 75 | 172 | 0.0 | 0.0 | 0.00 | 0.01 | 0.00 | 75 | 1020.9 |
| 20260831174312 | 76 | 172 | 0.0 | 0.0 | 0.00 | 0.01 | 0.00 | 75 | 1020.9 |
| 20260831173324 | 77 | 172 | 0.0 | 0.9 | 0.00 | 0.01 | 0.00 | 70 | 1020.8 |
| 20260831172340 | 77 | 220 | 0.0 | 0.9 | 0.00 | 0.01 | 0.00 | 69 | 1020.7 |
| 20260831171329 | 77 | 232 | 0.0 | 0.9 | 0.00 | 0.01 | 0.00 | 70 | 1020.7 |
| 20260831170315 | 76 | 232 | 0.0 | 0.9 | 0.00 | 0.01 | 0.00 | 69 | 1020.8 |
| 20260831165351 | 76 | 235 | 0.0 | 1.7 | 0.00 | 0.01 | 0.00 | 70 | 1020.8 |
| 20260831164319 | 76 | 214 | 0.0 | 0.9 | 0.00 | 0.01 | 0.00 | 69 | 1020.9 |
| 20260831163338 | 76 | 229 | 0.0 | 0.9 | 0.00 | 0.01 | 0.00 | 71 | 1021.0 |
| 20260831162324 | 74 | 240 | 0.0 | 0.9 | 0.00 | 0.01 | 0.00 | 71 | 1021.1 |
| 20260831161314 | 74 | 241 | 0.0 | 0.9 | 0.00 | 0.01 | 0.00 | 69 | 1021.1 |
| 20260831160322 | 73 | 240 | 0.0 | 1.7 | 0.00 | 0.01 | 0.00 | 72 | 1021.2 |
| 20260831155330 | 73 | 236 | 0.0 | 0.9 | 0.00 | 0.01 | 0.00 | 75 | 1021.3 |
| 20260831154346 | 73 | 233 | 0.0 | 0.9 | 0.00 | 0.01 | 0.00 | 75 | 1021.0 |
| 20260831153334 | 73 | 233 | 0.0 | 0.9 | 0.00 | 0.01 | 0.00 | 75 | 1021.2 |
| 20260831152323 | 73 | 233 | 0.0 | 1.7 | 0.00 | 0.01 | 0.00 | 73 | 1021.2 |
| 20260831151313 | 72 | 237 | 0.0 | 2.6 | 0.00 | 0.01 | 0.00 | 76 | 1021.2 |
| 20260831150322 | 72 | 244 | 0.0 | 0.9 | 0.00 | 0.01 | 0.00 | 80 | 1021.1 |
| 20260831145311 | 71 | 246 | 0.0 | 0.9 | 0.00 | 0.01 | 0.00 | 86 | 1021.2 |
| 20260831144330 | 70 | 244 | 0.0 | 0.9 | 0.00 | 0.01 | 0.00 | 85 | 1021.1 |
| 20260831143323 | 70 | 244 | 0.0 | 0.9 | 0.00 | 0.01 | 0.00 | 86 | 1021.3 |
| 20260831142354 | 69 | 244 | 0.0 | 0.9 | 0.00 | 0.01 | 0.00 | 88 | 1021.3 |
| 20260831141327 | 69 | 244 | 0.0 | 0.9 | 0.00 | 0.01 | 0.00 | 89 | 1021.1 |
| 20260831140318 | 68 | 244 | 0.0 | 0.9 | 0.00 | 0.01 | 0.00 | 89 | 1021.0 |
| 20260831135326 | 67 | 245 | 0.0 | 0.9 | 0.00 | 0.01 | 0.00 | 91 | 1021.0 |
| 20260831134313 | 67 | 246 | 0.0 | 0.0 | 0.00 | 0.01 | 0.00 | 94 | 1021.0 |
| 20260831133330 | 67 | 246 | 0.0 | 0.9 | 0.00 | 0.01 | 0.00 | 93 | 1021.1 |
| 20260831132318 | 66 | 246 | 0.0 | 0.9 | 0.00 | 0.01 | 0.00 | 94 | 1021.0 |
| 20260831131336 | 66 | 245 | 0.0 | 0.9 | 0.00 | 0.01 | 0.00 | 96 | 1021.0 |
| 20260831130330 | 65 | 245 | 0.0 | 0.0 | 0.00 | 0.01 | 0.00 | 96 | 1021.0 |
| 20260831125323 | 65 | 245 | 0.0 | 0.0 | 0.00 | 0.01 | 0.00 | 96 | 1021.1 |
| 20260831124345 | 64 | 245 | 0.0 | 0.9 | 0.00 | 0.01 | 0.00 | 97 | 1020.9 |
| 20260831123336 | 64 | 247 | 0.0 | 0.9 | 0.00 | 0.01 | 0.00 | 97 | 1020.9 |
| 20260831122329 | 63 | 245 | 0.0 | 0.9 | 0.00 | 0.01 | 0.00 | 97 | 1020.9 |
| 20260831121323 | 63 | 245 | 0.0 | 0.0 | 0.00 | 0.01 | 0.00 | 97 | 1020.9 |
| 20260831120332 | 63 | 245 | 0.0 | 0.9 | 0.00 | 0.01 | 0.00 | 97 | 1020.7 |
| 20260831115327 | 62 | 246 | 0.0 | 0.0 | 0.00 | 0.01 | 0.00 | 97 | 1020.9 |
| 20260831114346 | 62 | 246 | 0.0 | 0.9 | 0.00 | 0.01 | 0.00 | 97 | 1021.0 |
| 20260831113318 | 62 | 246 | 0.0 | 0.0 | 0.00 | 0.01 | 0.00 | 97 | 1020.8 |
| 20260831112358 | 62 | 246 | 0.0 | 0.0 | 0.00 | 0.01 | 0.00 | 97 | 1020.8 |
| 20260831111328 | 62 | 247 | 0.0 | 0.0 | 0.00 | 0.01 | 0.00 | 97 | 1020.5 |
| 20260831110350 | 62 | 246 | 0.0 | 0.0 | 0.00 | 0.01 | 0.00 | 97 | 1020.3 |
| 20260831105318 | 62 | 246 | 0.0 | 0.0 | 0.00 | 0.01 | 0.00 | 97 | 1019.9 |
| 20260831104311 | 62 | 246 | 0.0 | 0.0 | 0.00 | 0.01 | 0.00 | 97 | 1020.1 |
| 20260831103333 | 62 | 246 | 0.0 | 0.0 | 0.00 | 0.01 | 0.00 | 97 | 1020.0 |
| 20260831102326 | 62 | 246 | 0.0 | 0.0 | 0.00 | 0.01 | 0.00 | 97 | 1019.9 |
| 20260831101325 | 62 | 246 | 0.0 | 0.0 | 0.00 | 0.01 | 0.00 | 97 | 1019.8 |
| 20260831100317 | 62 | 246 | 0.0 | 0.0 | 0.00 | 0.01 | 0.00 | 97 | 1019.8 |
| 20260831095312 | 62 | 246 | 0.0 | 0.0 | 0.00 | 0.01 | 0.00 | 97 | 1019.8 |
| 20260831094330 | 62 | 247 | 0.0 | 0.0 | 0.00 | 0.01 | 0.00 | 97 | 1019.9 |
| 20260831093350 | 62 | 248 | 0.0 | 0.0 | 0.00 | 0.01 | 0.00 | 97 | 1019.8 |
| 20260831092320 | 62 | 248 | 0.0 | 0.0 | 0.00 | 0.01 | 0.00 | 97 | 1019.8 |
| 20260831091335 | 62 | 248 | 0.0 | 0.0 | 0.00 | 0.01 | 0.00 | 97 | 1019.8 |
| 20260831090324 | 62 | 248 | 0.0 | 0.0 | 0.00 | 0.01 | 0.00 | 96 | 1019.8 |
| 20260831085345 | 62 | 248 | 0.0 | 0.0 | 0.00 | 0.01 | 0.00 | 96 | 1019.6 |
| 20260831084318 | 62 | 248 | 0.0 | 0.0 | 0.00 | 0.01 | 0.00 | 96 | 1019.6 |
| 20260831083335 | 62 | 248 | 0.0 | 0.0 | 0.00 | 0.01 | 0.00 | 96 | 1019.7 |
| 20260831082354 | 62 | 248 | 0.0 | 0.0 | 0.00 | 0.01 | 0.00 | 96 | 1019.7 |
| 20260831081328 | 62 | 248 | 0.0 | 0.0 | 0.00 | 0.01 | 0.00 | 96 | 1019.5 |
| 20260831080349 | 62 | 248 | 0.0 | 0.0 | 0.00 | 0.01 | 0.00 | 96 | 1019.6 |
| 20260831074329 | 63 | 248 | 0.0 | 0.0 | 0.00 | 0.01 | 0.00 | 96 | 1019.5 |
| 20260831073320 | 63 | 248 | 0.0 | 0.0 | 0.00 | 0.01 | 0.00 | 96 | 1019.6 |
| 20260831072313 | 63 | 248 | 0.0 | 0.0 | 0.00 | 0.01 | 0.00 | 96 | 1019.6 |
| 20260831071334 | 63 | 248 | 0.0 | 0.0 | 0.00 | 0.01 | 0.00 | 96 | 1019.5 |
| 20260831070329 | 64 | 248 | 0.0 | 0.0 | 0.00 | 0.01 | 0.00 | 96 | 1019.5 |
| 20260831065325 | 64 | 248 | 0.0 | 0.0 | 0.00 | 0.01 | 0.00 | 96 | 1019.5 |
| 20260831064316 | 64 | 248 | 0.0 | 0.0 | 0.00 | 0.01 | 0.00 | 96 | 1019.5 |
| 20260831063336 | 64 | 248 | 0.0 | 0.0 | 0.00 | 0.01 | 0.00 | 96 | 1019.5 |
| 20260831062315 | 64 | 248 | 0.0 | 0.0 | 0.00 | 0.01 | 0.00 | 96 | 1019.3 |
| 20260831061331 | 65 | 248 | 0.0 | 0.0 | 0.00 | 0.01 | 0.00 | 95 | 1019.4 |
| 20260831060326 | 65 | 248 | 0.0 | 0.0 | 0.00 | 0.01 | 0.00 | 95 | 1019.4 |
| 20260831055344 | 65 | 248 | 0.0 | 0.0 | 0.00 | 0.01 | 0.00 | 95 | 1019.3 |
| 20260831054316 | 66 | 248 | 0.0 | 0.0 | 0.00 | 0.01 | 0.00 | 95 | 1019.3 |
| 20260831053315 | 66 | 248 | 0.0 | 0.0 | 0.00 | 0.01 | 0.00 | 95 | 1019.3 |
| 20260831052334 | 66 | 248 | 0.0 | 0.0 | 0.00 | 0.01 | 0.00 | 95 | 1019.1 |
| 20260831051326 | 67 | 248 | 0.0 | 0.0 | 0.00 | 0.01 | 0.00 | 95 | 1019.1 |
| 20260831050323 | 67 | 248 | 0.0 | 0.0 | 0.00 | 0.01 | 0.00 | 95 | 1019.2 |
| 20260831045347 | 68 | 248 | 0.0 | 0.9 | 0.00 | 0.01 | 0.00 | 95 | 1019.1 |
| 20260831044344 | 68 | 248 | 0.0 | 0.0 | 0.00 | 0.01 | 0.00 | 94 | 1019.0 |
| 20260831043316 | 68 | 248 | 0.0 | 0.0 | 0.00 | 0.01 | 0.00 | 94 | 1019.1 |
| 20260831042337 | 69 | 248 | 0.0 | 0.0 | 0.00 | 0.01 | 0.00 | 94 | 1019.0 |
| 20260831041335 | 69 | 248 | 0.0 | 0.9 | 0.00 | 0.01 | 0.00 | 94 | 1019.1 |
| 20260831040333 | 69 | 214 | 0.0 | 0.0 | 0.00 | 0.01 | 0.00 | 93 | 1019.2 |
| 20260831035320 | 69 | 214 | 0.0 | 0.9 | 0.00 | 0.01 | 0.01 | 93 | 1019.1 |
| 20260831034330 | 69 | 214 | 0.0 | 0.9 | 0.00 | 0.01 | 0.01 | 93 | 1019.2 |
| 20260831033321 | 70 | 108 | 0.0 | 0.9 | 0.00 | 0.01 | 0.01 | 94 | 1019.1 |
| 20260831032316 | 70 | 53 | 0.0 | 0.9 | 0.01 | 0.01 | 0.01 | 94 | 1019.2 |
| 20260831031355 | 70 | 219 | 0.0 | 0.9 | 0.01 | 0.01 | 0.01 | 94 | 1019.4 |
| 20260831030328 | 70 | 219 | 0.0 | 0.9 | 0.01 | 0.01 | 0.01 | 94 | 1019.3 |
| 20260831025317 | 70 | 219 | 0.0 | 0.9 | 0.01 | 0.01 | 0.01 | 94 | 1019.3 |
| 20260831024336 | 70 | 73 | 0.0 | 1.7 | 0.01 | 0.01 | 0.01 | 95 | 1019.5 |
| 20260831023331 | 70 | 146 | 0.0 | 0.9 | 0.01 | 0.01 | 0.01 | 95 | 1019.6 |
| 20260831022323 | 70 | 185 | 0.0 | 0.0 | 0.00 | 0.00 | 0.00 | 95 | 1019.5 |
| 20260831021312 | 70 | 185 | 0.0 | 0.0 | 0.00 | 0.00 | 0.00 | 95 | 1019.5 |
| 20260831020334 | 70 | 185 | 0.0 | 0.0 | 0.00 | 0.00 | 0.00 | 95 | 1019.3 |
| 20260831015329 | 70 | 186 | 0.0 | 0.0 | 0.00 | 0.00 | 0.00 | 95 | 1019.3 |
| 20260831014322 | 70 | 186 | 0.0 | 0.9 | 0.00 | 0.00 | 0.00 | 95 | 1019.1 |
| 20260831013316 | 70 | 219 | 0.0 | 0.9 | 0.00 | 0.00 | 0.00 | 95 | 1019.0 |
| 20260831012317 | 70 | 223 | 0.0 | 0.0 | 0.00 | 0.00 | 0.00 | 94 | 1019.1 |
| 20260831011335 | 70 | 223 | 0.0 | 0.0 | 0.00 | 0.00 | 0.00 | 94 | 1019.0 |
| 20260831010329 | 70 | 223 | 0.0 | 0.0 | 0.00 | 0.00 | 0.00 | 94 | 1018.9 |
| 20260831005326 | 70 | 223 | 0.0 | 0.0 | 0.00 | 0.00 | 0.00 | 93 | 1019.0 |
| 20260831004345 | 70 | 223 | 0.0 | 0.0 | 0.00 | 0.00 | 0.00 | 93 | 1018.9 |
| 20260831003318 | 70 | 223 | 0.0 | 0.0 | 0.00 | 0.00 | 0.00 | 92 | 1018.8 |
| 20260831002314 | 70 | 223 | 0.0 | 0.0 | 0.00 | 0.00 | 0.00 | 92 | 1018.7 |
| 20260831001332 | 71 | 223 | 0.0 | 0.0 | 0.00 | 0.00 | 0.00 | 92 | 1018.7 |
| 20260831000327 | 70 | 223 | 0.0 | 0.0 | 0.00 | 0.00 | 0.00 | 91 | 1018.7 |
| 20260830235316 | 71 | 223 | 0.0 | 0.0 | 0.00 | 0.00 | 0.00 | 90 | 1018.5 |
| 20260830234358 | 71 | 223 | 0.0 | 0.0 | 0.00 | 0.00 | 0.00 | 89 | 1018.5 |
| 20260830233329 | 71 | 223 | 0.0 | 0.0 | 0.00 | 0.00 | 0.00 | 89 | 1018.5 |
| 20260830232321 | 71 | 223 | 0.0 | 0.0 | 0.00 | 0.00 | 0.00 | 88 | 1018.5 |
| 20260830231317 | 72 | 223 | 0.0 | 0.0 | 0.00 | 0.00 | 0.00 | 88 | 1018.4 |
| 20260830230337 | 72 | 223 | 0.0 | 0.0 | 0.00 | 0.00 | 0.00 | 88 | 1018.4 |
| 20260830225328 | 72 | 223 | 0.0 | 0.9 | 0.00 | 0.00 | 0.00 | 88 | 1018.6 |
| 20260830224324 | 72 | 223 | 0.0 | 0.0 | 0.00 | 0.00 | 0.00 | 87 | 1018.7 |
| 20260830223317 | 73 | 223 | 0.0 | 0.0 | 0.00 | 0.00 | 0.00 | 86 | 1018.4 |
| 20260830222337 | 73 | 223 | 0.0 | 0.0 | 0.00 | 0.00 | 0.00 | 85 | 1018.6 |
| 20260830221329 | 73 | 223 | 0.0 | 0.0 | 0.00 | 0.00 | 0.00 | 84 | 1018.6 |
| 20260830220325 | 74 | 223 | 0.0 | 0.0 | 0.00 | 0.00 | 0.00 | 83 | 1018.6 |
| 20260830215320 | 74 | 223 | 0.0 | 0.0 | 0.00 | 0.00 | 0.00 | 82 | 1018.5 |
| 20260830214346 | 74 | 223 | 0.0 | 0.9 | 0.00 | 0.00 | 0.00 | 81 | 1018.5 |
| 20260830213316 | 74 | 223 | 0.0 | 0.9 | 0.00 | 0.00 | 0.00 | 82 | 1018.5 |
| 20260830212337 | 74 | 223 | 0.0 | 0.9 | 0.00 | 0.00 | 0.00 | 80 | 1018.5 |
| 20260830211330 | 75 | 223 | 0.0 | 0.9 | 0.00 | 0.00 | 0.00 | 80 | 1018.6 |
| 20260830210350 | 75 | 224 | 0.0 | 0.9 | 0.00 | 0.00 | 0.00 | 79 | 1018.7 |
| 20260830205324 | 75 | 221 | 0.0 | 0.9 | 0.00 | 0.00 | 0.00 | 79 | 1018.7 |
| 20260830204315 | 75 | 300 | 0.0 | 0.9 | 0.00 | 0.00 | 0.00 | 79 | 1018.9 |
| 20260830203333 | 75 | 300 | 0.0 | 0.9 | 0.00 | 0.00 | 0.00 | 78 | 1018.9 |
| 20260830202328 | 75 | 20 | 0.0 | 0.9 | 0.00 | 0.00 | 0.00 | 77 | 1018.9 |
| 20260830201322 | 75 | 319 | 0.0 | 0.9 | 0.00 | 0.00 | 0.00 | 77 | 1019.0 |
| 20260830200318 | 75 | 333 | 0.0 | 0.9 | 0.00 | 0.00 | 0.00 | 77 | 1018.9 |
| 20260830195312 | 75 | 333 | 0.0 | 0.0 | 0.00 | 0.00 | 0.00 | 76 | 1019.0 |
| 20260830194323 | 75 | 333 | 0.0 | 0.0 | 0.00 | 0.00 | 0.00 | 76 | 1019.1 |
| 20260830193318 | 75 | 331 | 0.0 | 0.9 | 0.00 | 0.00 | 0.00 | 74 | 1019.3 |
| 20260830192336 | 75 | 336 | 0.0 | 0.0 | 0.00 | 0.00 | 0.00 | 73 | 1019.3 |
| 20260830191330 | 76 | 328 | 0.0 | 0.9 | 0.00 | 0.00 | 0.00 | 71 | 1019.5 |